{"data":{"norad_id":40613,"epoch":"2026-09-20T03:13:58.123200Z","epoch_age_seconds":53378,"freshness":"FRESH","line1":"1 40613U 15022A   26263.13470050 -.00000012  00000+0  00000+0 0  9995","line2":"2 40613   0.0093 179.9546 0002639 357.1085 229.8186  1.00272642 41766","mean_motion":1.00272642,"eccentricity":0.0002639,"inclination_deg":0.0093,"raan_deg":179.9546,"arg_perigee_deg":357.1085,"mean_anomaly_deg":229.8186,"bstar":0,"rev_number":4176,"period_min":1436.0846301427,"perigee_km":35775.227505328,"apogee_km":35797.481924055,"semimajor_km":42164.491714692,"source":"CELESTRAK","updated_at":"2026-09-20T09:00:35.216465Z"}}